TimeEDT,TemperatureF,Dew PointF,Humidity,Sea Level PressureIn,VisibilityMPH,Wind Direction,Wind SpeedMPH,Gust SpeedMPH,PrecipitationIn,Events,Conditions,WindDirDegrees,DateUTC
5:56 AM,68.0,66.9,96,29.87,7.0,Calm,Calm,-,N/A,,Overcast,0,2013-08-27 09:56:00
6:56 AM,68.0,68.0,100,29.88,4.0,Calm,Calm,-,N/A,,Mostly Cloudy,0,2013-08-27 10:56:00
7:56 AM,69.1,68.0,96,29.88,5.0,Calm,Calm,-,N/A,,Mostly Cloudy,0,2013-08-27 11:56:00
8:56 AM,73.9,68.0,82,29.88,10.0,ENE,6.9,-,N/A,,Partly Cloudy,70,2013-08-27 12:56:00
9:56 AM,75.9,68.0,76,29.89,10.0,East,5.8,-,N/A,,Mostly Cloudy,100,2013-08-27 13:56:00
10:32 AM,77.0,68.0,74,29.85,10.0,ENE,8.1,-,N/A,,Mostly Cloudy,70,2013-08-27 14:32:00
10:49 AM,77.0,68.0,74,29.86,10.0,ENE,6.9,-,N/A,,Scattered Clouds,70,2013-08-27 14:49:00
10:56 AM,77.0,68.0,74,29.89,10.0,East,8.1,-,N/A,,Scattered Clouds,90,2013-08-27 14:56:00
11:56 AM,80.1,68.0,67,29.89,10.0,East,8.1,-,N/A,,Mostly Cloudy,80,2013-08-27 15:56:00
12:56 PM,82.0,66.0,58,29.88,10.0,ENE,4.6,-,N/A,,Mostly Cloudy,70,2013-08-27 16:56:00
1:56 PM,82.0,64.9,56,29.89,10.0,Calm,Calm,-,N/A,,Scattered Clouds,0,2013-08-27 17:56:00
2:56 PM,81.0,64.9,58,29.87,10.0,NE,3.5,-,N/A,,Mostly Cloudy,40,2013-08-27 18:56:00
3:56 PM,82.0,64.0,54,29.86,10.0,Variable,3.5,-,N/A,,Scattered Clouds,0,2013-08-27 19:56:00
4:56 PM,81.0,66.0,60,29.86,10.0,East,8.1,-,N/A,,Clear,100,2013-08-27 20:56:00
5:56 PM,79.0,64.9,62,29.87,10.0,ESE,6.9,-,N/A,,Clear,110,2013-08-27 21:56:00
6:56 PM,75.9,64.0,67,29.87,10.0,SE,8.1,-,N/A,,Scattered Clouds,130,2013-08-27 22:56:00
7:56 PM,71.1,64.0,78,29.89,10.0,Calm,Calm,-,N/A,,Clear,0,2013-08-27 23:56:00
8:56 PM,69.1,64.0,84,29.91,10.0,Calm,Calm,-,N/A,,Clear,0,2013-08-28 00:56:00
9:56 PM,66.0,64.0,93,29.92,10.0,Calm,Calm,-,N/A,,Clear,0,2013-08-28 01:56:00
10:56 PM,64.9,63.0,93,29.92,8.0,Calm,Calm,-,N/A,,Clear,0,2013-08-28 02:56:00
11:56 PM,64.0,64.0,100,29.92,6.0,Calm,Calm,-,N/A,,Clear,0,2013-08-28 03:56:00